EHI
0.0 0.0 0.0 0.0 0.0 0.0 -0.0 0.1 1.1 0.5 1.6 2.0 2.4 2.6 2.7 1.2 1.0 0.8 0.6 0.8 0.6 1.1
0.0 0.0 0.0 0.0 0.0 0.0 0.0 0.0 1.0 1.3 1.3 1.3 2.0 2.3 1.1 0.4 0.3 0.1 0.8 0.1 0.2 0.4
0.0 0.0 0.0 0.0 0.0 0.0 0.0 0.2 0.8 1.0 1.0 1.3 1.6 1.9 1.0 0.9 0.9 1.3 1.6 1.3 0.9 0.7
0.0 0.0 0.0 0.0 0.0 0.0 0.0 0.2 0.7 1.2 1.3 1.2 1.5 1.4 1.6 1.1 1.1 0.8 0.7 0.9 0.7 0.7
0.0 0.0 0.0 0.0 0.0 0.0 0.0 0.0 0.3 0.6 1.0 1.1 0.9 0.9 1.0 1.0 0.7 0.6 0.3 0.2 0.4 0.3
0.0 0.0 0.0 0.0 0.0 0.0 0.0 0.0 0.0 0.1 0.5 0.5 0.5 0.3 0.4 0.4 0.4 0.1 0.1 0.2 0.1 0.1
0.0 0.0 0.0 0.0 0.0 0.0 0.0 0.0 0.0 0.0 0.1 0.5 0.3 0.3 0.2 0.0 0.0 0.0 0.0 0.2 0.1 0.1
0.0 0.0 0.0 0.0 0.0 0.0 0.0 0.0 0.0 0.0 0.0 0.0 0.0 0.0 0.1 0.1 0.0 0.0 0.0 0.0 0.0 0.0
0.0 0.0 0.0 0.0 0.0 0.0 0.0 0.0 0.0 0.0 0.0 0.0 0.0 0.0 0.0 0.1 0.1 0.0 0.0 0.0 0.0 0.0
0.0 0.0 0.0 0.0 0.0 0.0 0.0 0.0 0.0 0.0 0.0 0.0 0.0 0.0 0.0 0.0 0.0 0.0 0.0 0.0 0.0 0.0
0.0 0.0 0.0 0.0 0.0 0.0 0.0 0.0 0.0 0.0 0.0 0.0 0.0 0.0 0.0 0.0 0.0 0.0 0.0 0.0 0.0 0.0
0.0 0.0 0.0 0.0 0.0 0.0 0.0 0.0 0.0 0.0 0.0 0.0 0.0 0.0 0.0 0.0 0.0 0.0 0.0 0.0 0.0 0.0
0.0 0.0 0.0 0.0 0.0 0.0 0.0 0.0 0.0 0.0 0.0 0.0 0.0 0.0 0.0 0.0 0.0 0.0 0.0 0.0 0.0 0.0
0.0 0.0 0.0 0.0 0.0 0.0 0.0 0.0 0.0 0.0 0.0 0.0 0.0 0.0 0.0 0.0 0.0 0.0 0.0 0.0 0.0 0.0